Theta_e
337 335 340 346 351 354 354 354 354 354 354 354 353 354 353 353 353 352 351 351 350 349 348 348 348 348 348 348 348 349 350 350 349 349 349 349 349 350 350 350 349 348 348 349 349 349 349 350 350 349 348 347 347 347 348 349 348 348 349 349 349 349 347 347 347 347 347 348 350 350 350 350 351 351 351 351 351 350 350 350 350 350 352 351 350
336 336 340 347 350 354 355 355 354 354 354 354 354 353 353 353 352 352 350 350 349 349 348 348 348 348 348 348 348 348 348 349 349 349 349 348 349 349 350 349 349 349 348 348 349 349 348 347 346 345 344 343 343 343 344 344 345 346 346 347 348 347 345 344 343 344 346 347 346 347 346 349 349 349 351 351 351 351 349 349 349 350 350 351 351
333 337 341 347 348 352 354 354 354 354 354 354 354 353 353 353 352 351 350 350 349 348 348 347 348 348 348 348 348 348 348 348 348 348 348 348 348 349 349 350 349 348 347 347 346 345 343 342 342 342 342 341 341 340 340 340 340 342 345 345 345 345 344 343 341 342 345 346 345 344 344 345 347 348 349 349 350 351 348 348 348 348 349 350 350
333 336 341 345 345 349 353 354 354 354 354 353 353 353 354 354 352 351 350 350 349 348 347 347 348 348 347 347 348 348 347 347 347 348 348 349 348 348 348 349 348 347 347 347 345 345 344 343 342 342 341 340 340 339 338 337 337 338 340 342 343 342 342 341 341 339 343 345 344 343 347 349 348 347 348 347 347 350 348 348 347 347 347 348 349
334 337 342 346 348 348 352 353 355 355 355 353 353 353 353 352 351 352 350 349 348 347 346 347 347 347 347 347 347 347 348 347 347 347 348 348 348 348 348 348 348 347 347 347 347 346 345 344 343 342 340 339 338 337 336 336 335 335 336 337 340 340 339 339 341 340 341 344 342 343 348 348 349 346 347 347 347 348 348 347 347 347 347 347 347
334 338 343 345 348 351 349 353 355 355 355 353 352 352 352 352 351 351 349 349 348 347 346 347 347 347 347 347 347 347 347 346 347 347 348 347 348 348 348 348 348 348 347 347 346 345 344 343 342 341 339 337 336 335 334 333 333 333 334 335 336 337 338 339 342 340 341 340 340 346 345 349 346 346 347 347 347 346 347 347 347 347 346 347 347
335 339 343 345 348 348 345 352 354 354 354 353 353 352 352 351 351 350 349 348 347 346 346 347 347 346 345 347 347 348 346 346 347 347 348 348 348 347 347 347 347 347 346 346 346 345 344 343 342 340 338 336 335 334 333 331 330 332 333 335 336 335 337 340 341 339 338 342 345 345 345 347 347 347 347 347 347 346 345 346 346 345 345 345 345
337 340 343 345 347 346 344 351 354 354 354 354 353 352 352 351 351 350 349 348 347 346 346 347 347 346 346 347 348 348 348 348 347 347 346 347 347 347 347 346 346 347 346 345 344 344 343 342 341 339 337 336 335 333 331 330 329 331 333 335 336 336 339 340 340 338 337 341 343 344 345 346 346 346 347 347 345 344 344 345 345 344 344 344 343
337 340 342 345 347 343 344 349 353 354 353 353 353 353 352 351 351 350 349 348 346 346 346 347 347 346 346 348 348 347 347 347 347 347 347 347 347 347 346 346 345 345 345 344 343 342 341 340 340 338 337 335 333 332 330 329 330 331 333 333 336 338 339 339 338 337 339 341 342 344 345 345 345 345 345 346 345 344 342 342 342 343 343 341 342
336 339 342 345 347 341 342 348 353 353 352 353 353 353 352 351 351 349 348 347 346 346 346 347 347 347 347 347 347 348 348 347 346 346 346 346 346 346 346 345 345 344 342 342 341 340 340 339 338 337 336 334 332 331 329 328 329 331 332 333 336 338 338 338 337 337 340 340 341 343 345 344 345 345 345 345 344 343 341 342 342 341 341 340 341
334 338 341 343 345 341 345 349 351 352 353 353 353 353 351 351 350 349 348 347 346 346 347 347 347 347 347 347 347 347 347 347 346 345 345 346 345 345 344 344 343 342 341 340 339 339 338 338 339 336 335 333 331 329 328 327 327 329 332 333 336 337 337 338 336 338 339 341 342 343 343 340 344 343 342 343 342 341 339 339 341 340 340 339 339
334 336 339 342 338 339 344 347 350 352 351 352 353 352 352 351 350 348 348 347 346 347 347 346 347 347 347 347 347 347 346 346 346 344 346 345 344 344 343 342 342 341 340 340 340 340 339 338 337 335 333 331 329 327 327 327 327 328 331 333 335 335 336 335 336 336 337 337 340 341 341 341 341 341 340 341 341 340 339 338 339 339 339 338 338
335 337 339 341 342 338 341 346 347 351 351 352 353 352 351 351 349 349 348 347 346 347 348 348 347 347 348 347 348 347 347 345 345 344 345 345 344 343 342 342 341 340 339 338 338 338 338 340 337 335 333 330 329 327 326 326 327 327 329 333 333 333 332 332 335 334 335 335 336 338 339 341 342 341 337 338 338 337 337 338 337 337 338 337 338
334 337 339 340 341 335 338 342 345 349 350 352 352 352 351 350 349 349 348 347 347 347 348 348 347 347 348 348 348 346 346 346 345 344 344 345 343 342 341 340 339 338 337 338 336 336 335 339 336 334 332 330 328 325 324 324 325 326 328 331 331 329 326 328 330 333 332 333 335 336 337 338 339 339 335 335 335 335 334 334 333 335 336 335 335
333 336 338 340 341 343 334 338 341 344 347 350 350 350 350 350 349 349 348 348 347 348 348 348 348 348 348 347 347 346 346 346 344 343 344 344 342 342 341 340 339 338 338 336 335 334 336 337 334 332 331 329 327 325 323 323 324 324 327 330 328 326 322 327 329 331 330 331 333 335 337 338 338 334 333 333 334 334 332 332 332 332 331 332 333
334 335 337 338 340 341 341 336 337 340 341 345 346 347 348 348 348 348 348 348 348 348 348 348 348 348 348 349 346 345 345 346 345 344 344 344 343 342 341 340 338 337 336 335 334 333 337 335 333 331 329 328 326 324 322 322 323 323 326 328 327 324 321 322 328 328 329 331 332 334 336 338 337 333 332 332 332 331 332 330 331 331 331 330 331
333 334 336 337 338 340 341 342 340 334 336 338 340 342 344 346 347 348 347 347 347 347 347 347 347 347 348 347 346 344 343 343 344 344 344 344 343 343 341 339 338 336 335 334 333 334 335 333 331 330 329 327 326 323 321 321 322 321 325 327 325 324 321 320 327 326 329 330 330 333 335 337 336 335 333 333 332 332 332 331 330 329 329 330 330
329 333 334 336 337 338 340 342 343 344 346 339 335 337 340 343 345 344 344 344 345 346 345 344 345 345 344 342 341 340 341 342 342 344 343 341 342 341 341 338 337 335 334 333 332 335 333 332 330 329 328 326 325 322 320 320 320 320 323 325 323 321 319 317 326 325 328 327 329 331 334 335 333 334 334 333 332 332 331 330 330 330 328 326 330
324 330 334 335 335 337 339 341 342 344 345 346 347 342 335 338 341 340 341 342 342 341 341 341 339 340 340 337 336 335 335 336 336 337 339 336 335 332 337 338 335 335 334 333 332 334 333 331 330 329 327 326 324 320 318 320 319 319 321 322 319 317 314 319 322 324 326 327 327 329 332 334 333 332 332 332 332 331 330 329 329 328 326 329 328
319 326 330 333 335 336 337 340 342 343 344 345 345 347 335 332 337 338 337 339 339 338 338 337 333 330 332 331 330 334 333 335 328 335 332 333 330 331 333 338 337 334 334 332 332 332 332 331 329 328 327 325 322 318 316 318 317 318 318 318 315 312 321 320 320 323 323 324 322 326 328 332 333 332 331 330 330 330 329 326 327 326 327 328 327
317 321 325 330 332 334 335 338 340 342 343 344 345 345 343 331 333 333 331 331 335 335 335 332 326 324 325 326 325 337 338 339 337 339 325 334 322 325 330 335 337 336 336 333 332 331 332 330 329 328 326 322 317 315 313 312 311 312 313 314 311 318 317 319 320 321 321 320 322 324 328 331 329 329 332 330 330 329 327 326 325 327 327 327 327
314 317 321 327 330 333 334 336 338 340 342 343 343 345 345 336 343 343 341 338 332 329 337 342 329 338 324 330 336 337 338 339 339 331 336 329 327 322 325 330 334 333 332 335 333 331 331 330 329 328 324 319 313 311 307 305 307 309 308 308 314 315 315 315 318 319 318 316 315 322 327 331 329 330 330 330 329 328 328 327 327 326 326 326 326
309 312 316 319 327 331 333 335 337 339 341 342 343 343 344 343 342 343 342 335 335 336 337 336 337 335 335 336 335 337 337 336 337 333 332 324 328 321 324 328 330 330 330 332 334 332 331 330 329 326 320 314 311 309 305 303 303 303 303 307 311 312 313 314 316 316 314 313 315 318 326 330 330 329 329 328 328 327 328 327 327 327 326 326 325
303 305 307 311 317 326 331 334 335 338 339 340 342 343 343 342 344 345 344 342 339 338 338 338 335 334 334 335 337 337 337 336 326 322 324 332 328 320 322 323 324 323 323 327 328 330 331 330 327 321 314 311 309 305 303 301 301 302 304 303 306 309 311 312 314 314 314 312 314 316 323 327 331 330 329 329 328 328 327 327 326 326 326 326 325
302 303 306 307 310 318 328 331 335 337 337 338 339 341 342 342 341 341 341 341 341 340 338 339 339 337 336 336 337 336 333 333 332 332 331 331 329 328 329 330 331 330 323 328 328 327 326 322 318 313 311 312 309 303 302 300 300 301 302 302 303 305 308 310 311 312 313 312 313 314 319 323 327 332 330 328 327 327 326 327 326 325 325 324 325
303 305 306 307 308 310 319 329 333 335 337 338 339 340 341 342 341 343 342 340 338 336 338 338 338 338 338 337 336 335 333 330 331 333 331 331 330 328 328 329 329 328 327 327 325 324 322 317 315 312 307 305 303 303 303 300 300 300 301 302 302 303 304 307 309 311 310 311 313 311 315 319 324 328 330 329 327 326 326 327 325 325 324 324 325
302 304 306 308 310 310 312 324 331 334 335 337 339 339 340 340 341 341 341 340 340 338 335 335 336 337 336 334 334 335 333 332 329 331 331 330 329 326 325 326 328 327 325 325 323 322 321 318 316 312 306 306 303 304 303 302 300 301 302 302 302 302 303 304 306 308 308 308 308 308 312 316 321 324 328 330 328 327 326 326 326 325 324 323 324
302 303 306 308 311 312 311 316 328 333 334 337 338 338 338 339 339 340 340 337 338 339 337 335 335 333 330 333 334 336 335 332 330 329 327 326 325 325 323 322 322 323 324 327 325 322 321 320 318 311 308 305 306 305 304 302 301 302 303 303 303 303 302 302 303 305 306 307 308 308 310 314 316 320 324 326 330 332 334 332 326 326 325 325 323
300 302 304 308 310 313 311 314 324 331 334 335 336 337 337 336 338 336 338 335 338 336 335 336 333 331 330 327 329 332 332 330 328 328 326 326 324 323 323 323 323 323 322 322 322 320 319 317 315 312 309 308 307 307 304 303 301 301 301 303 302 302 302 301 302 303 305 306 306 307 307 310 313 316 320 324 326 327 330 333 331 325 325 325 323
299 301 303 305 309 314 314 317 322 326 332 334 334 335 336 336 334 339 335 328 333 332 331 331 332 332 327 325 327 330 330 329 327 326 324 321 321 322 322 323 324 323 323 322 319 319 316 313 312 312 311 309 310 305 305 305 303 301 301 302 302 301 300 300 301 302 303 304 305 306 304 307 310 313 315 319 322 325 327 331 333 335 329 326 325
299 302 302 303 308 312 315 315 319 321 327 332 333 333 333 334 335 334 332 332 332 332 331 328 330 330 326 323 325 327 328 327 326 325 325 322 320 321 322 322 321 319 322 320 318 317 315 316 315 314 312 311 310 304 305 306 305 303 300 301 301 300 300 300 300 300 301 303 304 304 305 303 307 309 312 314 318 322 325 327 330 333 334 335 327
298 298 300 303 308 310 314 315 317 321 324 326 329 332 331 332 330 333 333 331 328 329 328 327 325 325 323 322 322 323 324 323 322 321 321 321 321 321 321 320 319 315 318 318 316 316 315 311 309 309 309 310 309 307 303 306 307 304 301 302 300 300 300 299 299 299 300 301 302 303 304 304 303 306 309 311 315 317 320 323 326 329 332 333 334
298 298 300 304 305 308 312 313 315 318 321 324 325 325 326 324 323 322 322 322 322 322 321 322 322 322 321 320 320 320 320 321 320 319 317 318 318 318 318 317 316 315 315 314 313 312 312 311 308 306 306 308 309 310 306 306 306 306 302 302 300 301 300 299 299 299 300 301 301 302 303 303 304 303 305 307 311 314 317 320 323 326 329 330 332
296 298 300 301 303 307 311 313 314 315 316 317 318 318 318 318 318 319 318 318 318 318 317 318 318 319 318 318 318 317 317 317 317 316 316 316 315 314 314 313 312 312 313 313 313 313 312 312 308 309 307 309 309 307 307 309 308 304 304 301 299 299 298 299 299 299 299 300 300 301 302 302 303 305 305 304 306 310 314 318 320 323 325 327 329
296 297 298 299 302 305 309 312 313 315 316 316 316 315 315 315 315 315 314 315 314 315 315 315 315 316 316 315 316 316 316 316 317 317 315 316 315 314 313 311 311 311 311 310 311 311 311 310 308 310 309 308 306 305 304 304 302 303 302 300 299 298 298 298 298 299 299 299 298 299 300 301 303 304 304 305 303 305 309 313 317 320 323 325 327
294 295 297 299 299 302 306 310 311 312 313 312 312 311 310 310 309 309 309 310 310 310 310 310 311 312 312 311 312 312 313 315 316 316 314 314 313 311 311 311 310 310 309 309 310 310 309 308 304 306 308 308 306 307 303 303 302 302 301 299 299 297 298 298 298 298 298 297 298 299 299 300 301 302 303 305 306 306 305 309 313 317 320 321 322
294 294 295 297 298 299 300 303 305 307 308 308 307 306 305 304 303 303 303 303 303 303 304 304 305 305 307 307 308 308 309 310 312 312 312 312 312 310 310 311 311 311 309 309 308 308 308 308 306 303 305 306 306 306 306 304 302 301 299 299 299 298 298 298 298 298 297 297 298 298 298 299 300 300 303 304 304 305 304 305 309 313 314 314 316
294 294 295 295 296 297 298 299 301 303 304 304 304 303 302 302 301 300 300 299 298 298 298 299 299 299 300 301 302 303 304 306 307 308 308 308 309 309 309 310 311 311 309 308 305 305 307 308 308 304 303 304 305 305 304 302 299 299 299 299 299 297 298 297 297 297 297 297 298 298 298 298 299 300 301 302 303 303 305 304 305 307 307 308 314
293 293 294 295 296 296 297 297 298 300 302 302 302 302 301 300 300 299 298 297 297 296 296 296 296 296 296 297 298 298 299 301 303 304 304 305 305 305 306 307 308 309 307 305 305 305 306 306 305 305 303 302 302 301 299 298 298 298 297 298 298 298 298 297 296 296 296 297 296 297 297 297 298 298 299 301 301 302 303 304 305 307 308 306 310
292 293 293 293 294 295 296 296 297 298 300 301 301 299 299 298 297 297 296 295 295 294 294 294 294 294 294 294 295 295 296 297 298 300 301 301 301 301 301 302 304 305 303 302 302 302 302 302 302 301 302 302 298 297 296 296 297 297 297 298 298 297 297 297 296 296 296 296 296 296 296 297 296 297 297 298 299 300 301 302 303 304 305 306 306
291 292 292 292 293 293 294 294 295 296 297 297 297 297 297 296 295 294 293 293 293 293 292 292 292 292 293 293 293 294 294 295 296 296 297 297 298 298 298 298 300 300 299 298 299 298 299 299 299 299 299 299 301 297 297 295 295 299 299 299 299 299 296 296 296 295 295 296 295 295 295 295 296 296 296 296 297 298 299 300 301 302 303 304 305
290 291 291 291 292 292 292 293 294 295 295 296 296 295 295 294 293 292 291 291 291 290 289 289 289 290 290 291 291 292 292 293 294 294 295 295 295 296 296 296 297 298 297 297 297 296 297 297 298 298 298 297 297 295 296 298 298 293 293 294 296 298 298 295 295 297 296 297 295 294 294 294 295 296 295 295 296 296 297 298 299 300 301 302 303
289 289 290 291 291 291 292 292 293 294 295 295 295 294 294 295 294 292 291 289 290 290 289 289 289 288 289 289 289 290 290 291 292 292 292 293 293 294 294 295 295 296 296 296 296 295 295 295 296 295 296 297 296 296 295 295 292 293 295 293 294 293 299 297 295 296 298 297 293 294 294 295 295 294 294 294 295 295 296 296 297 298 299 300 301
288 288 289 290 290 291 291 291 292 293 294 294 294 294 293 292 292 292 291 290 288 289 289 289 289 288 288 289 289 289 289 289 290 290 290 290 291 292 292 293 293 294 294 294 294 294 294 294 295 295 296 295 294 295 295 295 293 293 291 290 291 289 292 294 291 294 295 293 293 295 295 294 294 294 294 295 295 295 295 295 295 296 297 298 299
286 286 287 288 288 289 290 290 291 291 292 292 293 294 293 292 291 290 290 289 289 288 287 287 287 287 287 287 287 288 288 288 289 289 289 289 289 290 290 290 291 291 292 292 292 292 293 293 293 294 293 293 293 293 295 295 294 294 292 290 291 291 290 290 289 293 293 295 297 297 295 294 294 294 294 295 295 294 294 294 294 295 295 296 296
285 285 286 287 287 288 288 289 289 289 289 290 290 291 290 289 289 287 286 285 285 285 284 284 285 285 285 287 287 288 288 288 288 288 288 288 288 288 289 289 289 289 290 290 290 291 291 291 292 292 293 293 293 293 292 294 294 294 294 292 291 289 287 289 290 289 294 295 295 293 295 295 293 294 294 294 295 295 294 294 294 294 295 295 295
284 285 285 285 286 287 287 287 287 288 288 288 289 288 287 287 286 286 286 285 284 284 285 286 286 286 287 286 287 287 287 287 287 287 287 288 287 287 288 288 288 288 288 288 288 288 289 290 291 291 291 292 292 291 291 291 293 294 293 293 292 292 291 288 288 288 288 292 293 294 295 296 295 293 294 294 294 294 295 294 294 294 294 294 294
284 284 285 285 285 285 285 286 286 287 287 287 287 288 287 286 286 286 286 285 285 284 285 285 286 286 286 286 286 286 287 287 287 287 287 287 287 287 287 287 287 287 287 287 287 288 288 289 289 290 290 290 290 289 290 290 289 290 291 291 291 292 292 291 291 288 286 284 288 295 294 295 294 294 294 294 294 295 294 295 295 295 294 294 294
284 284 284 284 285 285 285 285 285 285 286 287 286 287 287 286 286 286 285 285 285 285 286 286 285 286 285 285 285 286 286 286 286 286 286 286 286 286 286 286 286 286 286 286 286 287 286 287 287 287 288 288 288 289 289 288 288 288 289 289 290 290 291 291 289 289 287 286 287 289 290 292 293 293 293 294 294 294 294 294 294 294 294 294 294
283 284 283 284 284 285 285 284 284 285 285 285 286 286 286 286 285 285 284 284 285 285 285 285 285 285 285 285 285 285 285 285 286 286 286 286 286 286 286 285 285 285 285 285 286 286 286 286 286 286 287 287 287 287 287 287 288 288 288 288 288 288 289 290 290 289 289 288 286 286 288 288 287 291 293 293 294 294 294 294 294 294 294 294 294
283 283 283 283 284 284 284 284 284 284 285 285 285 285 286 286 285 285 285 284 285 285 285 284 285 285 284 284 284 285 285 285 285 285 285 285 285 285 285 285 285 285 285 285 284 285 285 285 285 286 286 285 285 286 286 287 287 286 286 287 286 287 286 286 286 287 287 286 286 286 288 288 288 287 291 293 293 293 294 294 293 293 294 294 294
Wind_Speed
11 6 4 10 9 11 14 14 14 13 13 13 13 13 13 13 13 12 12 12 12 11 10 10 9 9 9 9 9 10 10 10 10 10 9 9 10 10 10 11 11 11 11 13 14 14 14 14 14 14 14 14 13 14 14 14 14 13 13 13 13 12 12 12 12 12 12 12 12 13 12 12 12 12 13 13 13 13 13 12 10 8 8 9 11
9 8 5 8 10 10 13 14 14 13 13 13 13 12 12 12 12 11 11 12 11 11 10 9 9 10 10 10 9 9 9 9 9 9 9 9 10 10 11 11 11 12 13 13 15 15 14 13 13 13 12 12 12 12 12 12 12 11 11 11 10 10 11 11 11 11 11 11 11 11 11 10 12 11 12 13 14 14 12 12 11 8 8 12 13
1 7 5 9 9 8 11 13 14 14 13 13 12 12 11 10 11 11 11 11 11 10 10 10 9 9 9 9 9 9 9 9 9 8 9 9 9 10 11 11 12 12 13 14 15 15 13 13 13 13 13 13 13 13 13 12 11 10 9 9 8 8 8 8 9 9 9 10 9 9 8 8 9 11 12 12 13 14 13 12 12 10 9 13 12
7 6 6 8 8 9 10 11 12 12 12 12 12 10 9 10 10 11 11 10 10 10 10 9 9 9 9 9 9 8 8 8 8 9 9 9 9 10 11 12 12 13 14 15 14 14 13 13 13 13 13 13 13 13 13 12 11 10 9 8 7 7 6 7 7 7 7 8 8 6 5 5 5 9 10 11 12 14 12 13 13 14 13 14 15
7 6 7 7 9 8 10 10 11 11 11 11 10 10 10 10 11 10 10 10 9 10 9 9 9 9 9 9 9 9 8 7 8 8 8 8 9 10 11 11 12 12 13 14 13 13 13 12 12 12 12 12 12 12 12 11 10 10 9 8 7 6 6 6 6 5 5 7 7 4 5 6 5 8 10 11 12 13 12 13 13 13 13 15 16
7 7 6 6 9 9 9 10 11 11 11 12 11 11 11 10 10 9 9 9 9 9 9 9 9 9 8 8 8 8 8 8 8 8 8 8 8 9 10 10 11 11 11 11 11 12 10 10 10 11 12 12 11 11 11 10 10 9 8 8 7 7 6 6 5 5 5 7 5 3 5 5 6 6 10 10 11 12 12 13 13 13 13 14 13
6 7 6 6 8 8 8 10 12 11 11 12 12 11 11 11 10 10 10 9 9 8 9 9 9 8 8 8 8 8 8 8 8 9 8 7 8 9 9 10 10 10 9 9 10 10 9 9 8 10 10 10 10 10 10 9 8 8 7 7 7 5 6 5 5 5 5 3 3 4 4 5 6 5 11 11 11 12 13 13 13 13 13 13 13
5 5 6 6 8 7 8 9 10 10 10 10 11 11 12 11 10 10 9 9 8 8 9 9 9 9 8 7 7 7 8 9 8 8 9 9 8 9 10 9 9 9 9 8 9 9 9 8 9 10 10 10 10 10 9 8 7 7 7 6 6 5 5 4 5 6 6 4 4 4 4 5 6 5 10 12 12 12 12 12 12 12 12 13 10
6 5 5 5 8 8 7 9 9 11 11 10 9 9 10 10 9 9 9 9 8 8 8 8 8 7 7 7 7 7 6 7 8 8 9 10 10 10 10 9 9 8 9 9 9 9 8 7 8 9 10 10 10 10 9 9 8 7 6 6 5 5 4 5 6 5 4 4 4 4 5 5 6 6 9 12 12 12 12 9 9 10 11 11 10
4 5 4 5 7 9 7 8 10 12 13 10 9 9 10 10 8 9 9 8 8 8 8 8 7 7 6 6 5 5 5 7 8 8 9 10 10 10 10 9 8 8 9 9 8 7 6 6 6 8 9 9 9 9 9 8 8 7 6 6 5 5 5 6 6 5 4 4 5 5 4 3 6 5 9 11 11 11 10 7 6 6 6 8 10
5 6 5 6 8 7 8 8 10 10 11 10 10 9 11 10 9 10 8 8 8 8 7 8 7 7 6 5 4 5 6 7 9 9 10 10 8 9 9 10 10 10 9 8 6 6 5 3 8 7 9 9 9 9 9 8 8 7 7 6 5 5 5 6 5 3 3 4 4 4 4 2 3 4 7 8 10 9 8 8 7 7 7 8 9
5 4 4 5 5 7 8 8 8 9 10 10 10 11 11 9 9 10 9 9 9 9 8 8 7 7 6 5 5 6 7 9 10 10 11 10 8 8 8 8 8 8 7 8 8 8 10 5 8 8 9 9 9 9 9 8 8 7 7 6 5 5 6 6 4 4 3 2 3 2 3 3 4 5 7 7 8 8 8 8 8 8 8 8 8
6 5 4 3 5 6 7 7 6 8 8 8 11 12 12 11 10 10 10 10 9 9 8 7 6 7 6 5 5 7 9 9 10 10 10 10 9 8 7 7 7 7 6 6 7 8 8 10 8 9 9 9 9 9 9 8 7 7 6 6 6 6 6 7 3 3 2 2 2 2 2 1 1 2 4 5 6 6 6 7 7 7 7 8 8
7 7 6 5 5 5 7 7 7 7 8 8 10 10 10 12 12 11 10 10 9 8 8 7 7 6 6 4 5 7 9 9 9 9 9 10 9 7 7 6 7 7 7 8 7 7 7 9 9 9 9 9 9 9 8 7 7 7 7 7 6 6 5 4 2 3 2 2 2 2 2 2 1 4 3 4 5 5 5 5 5 6 6 6 6
7 8 8 6 7 6 7 7 7 7 7 8 8 10 10 10 10 10 9 9 9 8 7 7 7 5 5 4 6 8 10 10 9 8 9 9 9 8 6 6 6 7 8 7 7 6 7 9 9 9 9 9 9 9 8 7 7 7 7 7 7 7 5 2 2 2 2 2 2 2 3 2 3 0 2 2 4 4 4 4 5 4 4 4 5
5 6 6 5 6 7 6 7 7 7 7 7 7 9 10 10 10 9 9 8 8 8 7 7 7 5 4 3 5 6 9 11 10 9 7 8 8 8 7 6 6 6 6 6 6 6 9 8 8 9 8 9 9 8 8 8 7 7 8 7 7 7 6 3 2 2 1 2 2 2 3 3 5 0 1 3 3 1 3 4 3 4 4 4 3
2 0 3 3 4 5 7 7 6 6 6 6 6 8 9 9 10 10 9 8 8 7 8 7 6 5 3 2 4 5 5 8 8 8 7 6 7 8 7 6 6 6 6 6 5 8 8 8 8 8 8 8 9 8 8 8 8 7 8 7 6 6 6 4 2 2 2 3 2 2 3 3 5 4 3 3 2 2 3 4 3 3 3 4 3
2 2 4 3 2 3 3 6 6 6 6 5 5 7 9 9 9 9 9 8 8 7 7 7 6 5 3 2 5 6 4 4 7 7 8 7 8 8 6 6 6 5 6 6 6 9 8 8 8 8 8 8 8 9 9 8 8 8 7 7 7 7 6 5 3 2 2 3 3 2 3 5 4 3 3 3 2 2 4 3 4 3 3 2 4
3 1 1 1 2 2 3 4 5 7 6 6 6 5 8 9 10 10 10 9 8 7 6 6 5 5 4 4 4 8 7 7 4 6 8 9 8 9 8 6 5 5 5 6 6 9 7 7 7 7 7 8 9 10 10 9 8 8 8 7 7 6 6 3 3 2 3 3 2 3 3 8 4 2 2 3 4 4 4 3 3 3 2 4 5
2 3 1 1 2 3 3 3 5 7 5 5 5 6 6 8 10 10 9 10 9 8 7 7 6 5 3 6 5 3 4 4 6 5 8 8 8 7 7 5 5 5 5 5 6 6 7 6 6 7 8 9 9 9 9 10 10 10 9 8 6 5 3 2 3 3 2 2 2 2 6 9 7 5 4 3 3 3 2 2 1 1 2 3 3
4 2 1 1 1 3 4 4 5 6 5 4 5 7 6 7 7 10 10 8 9 9 8 8 6 4 3 4 6 4 4 5 5 4 9 7 9 8 6 6 5 5 5 5 6 5 7 6 6 6 8 9 8 8 8 9 9 10 9 8 6 3 2 2 2 2 2 2 3 3 10 9 7 6 6 4 3 2 3 2 1 0 1 2 3
6 4 3 3 3 3 6 6 5 6 6 4 3 5 5 6 7 6 7 7 6 5 7 6 5 4 4 4 3 3 3 3 5 5 5 8 8 9 7 6 6 5 5 6 5 5 6 6 5 7 8 8 8 4 3 5 7 8 7 6 3 2 2 3 3 2 3 3 4 5 11 10 7 7 4 3 2 2 2 2 1 1 0 0 3
7 6 5 5 4 4 4 7 7 7 8 7 4 3 7 5 5 7 7 6 7 6 3 4 4 5 4 4 4 4 4 4 4 5 4 7 9 10 9 8 7 6 4 5 6 5 5 6 7 8 8 7 4 2 2 2 3 5 5 4 3 3 2 2 2 2 3 3 4 8 11 11 9 7 5 3 3 2 2 2 3 4 3 3 0
7 5 7 6 5 6 6 6 7 8 7 5 5 4 3 6 7 4 4 5 6 6 6 5 3 3 4 4 4 4 5 3 3 7 6 4 4 6 10 9 7 7 8 4 5 3 6 7 9 9 4 2 2 2 2 2 2 2 2 2 2 2 2 2 2 2 1 3 4 9 11 12 11 9 5 4 4 3 3 3 2 2 3 4 3
6 7 4 6 7 6 6 7 6 7 8 6 5 6 5 3 3 5 5 4 4 7 7 7 7 6 6 5 5 5 4 3 5 4 3 3 4 3 3 4 4 3 4 3 3 3 4 4 3 3 3 2 2 2 2 2 2 2 2 2 2 2 2 2 2 2 2 2 3 9 10 11 12 12 8 5 4 3 3 4 3 3 3 3 3
6 6 8 7 7 6 7 6 7 7 7 7 6 3 6 6 4 4 7 3 2 0 1 5 6 7 6 6 6 6 6 4 4 6 6 5 5 4 3 4 4 4 4 3 3 3 3 3 3 2 2 2 2 2 2 2 1 2 2 2 2 2 2 2 2 2 2 2 3 8 8 10 11 11 10 8 5 4 4 5 3 3 2 1 4
7 7 7 8 8 7 5 6 7 6 7 5 4 3 3 4 8 7 8 6 6 5 3 2 3 5 7 6 6 6 5 5 5 5 5 4 3 4 4 4 4 3 2 4 3 3 3 3 3 3 2 3 2 2 2 2 2 2 2 2 1 2 2 2 2 2 2 2 2 6 7 8 9 10 10 9 8 6 4 4 7 6 4 3 2
5 8 8 8 8 9 6 5 5 6 4 5 5 4 3 2 2 4 3 3 4 2 1 1 1 3 3 5 7 8 8 6 6 5 3 3 4 6 5 4 4 4 4 4 4 2 2 1 2 2 3 2 2 2 1 2 2 2 2 2 2 2 2 2 2 2 2 2 2 4 7 8 8 9 10 9 10 12 13 10 7 8 6 6 2
10 10 8 8 9 9 5 3 4 3 4 3 5 3 3 4 6 1 5 1 2 2 4 2 3 2 4 1 3 3 4 4 4 4 3 5 2 6 5 4 3 2 3 2 2 2 1 2 2 2 1 2 1 1 1 1 1 1 1 1 2 2 2 2 2 2 2 2 2 3 7 8 8 9 9 10 10 12 13 12 9 8 7 8 4
9 8 8 8 8 9 7 3 1 4 2 2 3 2 5 2 1 5 5 4 3 4 4 3 1 3 4 4 2 2 3 4 4 4 5 4 2 2 2 2 2 2 2 3 2 2 2 2 2 1 1 1 0 1 1 1 1 1 1 1 1 1 1 1 2 2 2 2 2 3 5 8 9 9 10 10 11 12 12 13 12 13 10 9 8
9 10 9 8 7 8 8 6 2 2 2 5 2 4 2 3 3 5 5 5 3 3 3 3 3 3 3 3 3 1 2 2 4 5 4 4 3 2 1 1 2 2 2 3 2 3 2 1 1 1 0 0 0 1 1 1 1 1 1 1 1 1 1 1 1 1 1 1 1 2 3 5 6 8 9 10 11 12 13 13 13 12 14 15 11
9 10 8 7 8 10 9 9 6 3 4 3 4 3 3 4 5 5 5 6 8 7 8 8 7 6 7 6 6 6 5 4 6 5 5 4 2 2 2 3 3 3 3 3 3 2 3 3 3 2 2 0 1 1 1 2 2 2 2 2 1 2 1 1 1 1 2 2 1 1 2 2 4 7 7 8 9 11 12 13 13 14 14 14 16
6 8 8 9 10 8 8 9 8 8 8 7 7 6 7 8 10 9 9 9 7 9 9 8 8 8 8 8 7 7 6 5 5 6 5 4 5 5 6 5 4 3 3 4 4 2 3 3 3 2 1 1 1 1 1 1 2 3 2 2 2 3 2 2 2 2 2 2 1 1 1 2 3 4 6 7 8 9 10 11 12 13 13 14 15
7 7 8 11 7 5 6 7 8 9 9 8 9 9 9 9 9 8 9 9 9 10 9 8 9 9 9 9 8 8 7 6 6 7 5 6 6 6 6 5 4 5 4 4 3 2 2 3 3 2 3 3 3 3 3 4 3 3 3 3 3 3 2 3 3 3 2 3 2 2 2 1 2 2 2 5 6 8 10 11 11 12 12 13 13
7 8 10 8 10 9 7 7 9 10 11 11 11 11 10 10 9 10 10 10 9 10 10 9 9 8 9 10 10 9 9 7 6 7 6 6 6 7 6 4 3 4 5 4 4 4 4 5 4 4 3 2 3 2 3 3 4 5 4 3 3 3 2 3 3 3 3 3 2 3 2 2 2 2 2 3 3 5 7 9 11 11 12 12 12
10 8 7 7 9 10 11 12 12 13 12 11 11 10 11 10 9 10 9 10 10 9 10 10 9 8 9 10 10 11 10 10 8 8 9 8 7 7 5 5 5 5 5 4 4 4 3 3 3 3 1 2 2 2 0 2 2 3 3 3 3 3 4 3 4 4 2 2 3 3 2 3 3 2 3 2 3 3 5 8 9 11 12 12 12
8 9 8 7 9 10 10 13 13 13 13 13 11 11 11 11 12 11 10 11 10 10 9 7 8 9 8 9 9 10 10 11 9 9 10 7 7 8 7 7 6 6 5 5 5 3 3 2 2 3 1 1 2 3 2 1 2 2 3 4 3 3 4 3 4 4 2 3 3 3 3 3 3 3 3 3 3 2 3 6 7 9 10 11 12
8 8 7 7 8 8 8 8 8 8 7 8 9 10 10 11 11 10 11 12 12 10 9 9 10 9 9 10 10 10 10 9 8 7 8 8 7 7 7 7 5 5 5 5 5 4 3 3 3 2 2 2 3 4 5 4 3 4 4 4 4 3 4 4 4 4 3 4 3 4 3 3 3 3 3 3 3 3 3 3 6 7 6 8 11
7 8 7 7 7 8 8 10 9 8 8 8 9 9 10 11 10 10 12 11 10 10 9 10 9 9 10 10 11 11 10 10 10 9 10 9 9 9 8 8 6 6 6 6 7 4 3 3 5 3 2 2 3 3 4 4 5 4 5 6 4 5 4 4 3 3 4 3 4 4 3 3 3 3 3 3 3 4 4 4 4 3 4 6 9
7 7 8 9 9 9 7 9 9 7 6 7 7 8 9 9 9 9 12 11 10 10 12 10 9 11 9 10 11 10 10 10 11 10 10 9 9 9 9 8 7 7 8 9 7 7 7 7 7 5 6 4 2 2 3 4 5 5 5 4 4 4 5 3 4 3 3 3 4 3 4 3 3 3 3 3 3 3 3 4 3 4 4 5 7
9 8 9 10 10 7 9 11 7 7 8 7 8 7 7 7 10 12 10 9 9 10 11 10 11 10 11 12 11 10 10 11 10 10 9 9 9 8 9 9 8 9 9 8 7 8 8 7 5 3 6 7 4 4 4 3 4 5 2 4 5 3 5 3 3 3 3 3 3 3 2 3 3 3 2 3 3 3 3 4 4 4 4 4 5
9 9 10 8 8 9 11 7 7 9 9 8 7 10 8 8 10 8 9 8 9 10 10 10 9 9 11 11 11 11 12 11 11 11 11 11 10 10 10 9 9 9 8 8 9 9 9 9 6 6 4 5 6 5 6 6 4 9 10 7 2 3 3 2 3 2 3 3 2 2 2 3 4 3 3 3 3 3 3 3 3 4 4 4 5
7 8 6 8 10 10 8 8 8 8 8 8 8 9 7 7 9 7 8 10 8 8 8 8 8 11 11 11 11 10 11 11 11 11 10 10 10 10 9 8 10 8 9 10 10 10 9 9 9 6 5 5 4 3 6 6 5 7 4 4 6 8 2 3 1 7 8 3 2 1 1 3 3 2 3 3 3 4 3 3 4 4 5 5 5
7 8 8 9 7 8 9 9 9 8 8 8 10 9 11 10 10 10 9 9 8 7 9 8 10 12 13 10 11 10 11 11 11 10 10 10 10 9 8 9 9 8 8 8 9 10 9 8 8 7 5 7 6 6 4 5 4 6 6 5 5 2 8 4 10 10 5 3 1 2 1 3 2 2 2 3 3 3 4 3 5 5 5 5 5
7 8 7 7 6 9 9 9 8 9 7 7 6 6 7 8 7 8 7 8 7 8 9 11 10 9 9 12 11 10 11 11 10 11 10 10 10 9 9 9 9 9 8 9 8 8 8 7 8 7 8 5 5 4 5 6 7 4 3 4 3 3 3 9 13 7 3 8 8 6 4 3 3 3 2 4 3 3 4 4 5 5 6 5 5
8 7 6 6 7 7 8 8 8 8 8 8 6 5 6 6 5 7 9 9 10 9 10 8 8 10 10 7 10 11 11 11 11 11 10 10 10 10 9 10 9 9 8 8 7 8 10 10 8 6 8 8 3 5 6 7 5 5 6 3 1 2 7 8 6 9 5 5 3 2 4 4 3 4 3 4 5 4 3 4 4 5 5 5 5
7 5 6 7 8 8 8 8 8 7 7 8 7 6 9 9 11 11 9 9 10 7 5 5 6 6 7 9 8 9 10 11 10 10 10 10 10 10 10 9 9 9 8 8 9 9 7 8 7 8 7 6 7 7 7 6 3 5 6 3 2 1 2 4 5 7 13 3 3 4 6 5 4 3 4 4 5 5 4 4 5 5 6 5 6
5 5 7 7 9 9 9 9 8 8 8 7 9 7 9 8 10 10 9 9 9 8 6 6 6 6 8 8 8 8 9 10 9 10 9 9 9 9 9 9 9 9 8 9 8 8 7 7 8 7 7 7 8 7 6 7 7 6 6 5 5 2 0 3 4 3 5 9 14 1 4 1 3 4 6 7 6 5 6 5 5 5 5 5 5
6 7 7 7 8 8 9 9 10 9 9 10 9 9 8 8 8 8 11 8 8 7 5 6 7 6 9 7 8 7 8 8 9 9 9 9 8 8 8 9 9 8 7 7 7 8 9 9 9 9 9 8 7 6 6 7 6 6 6 6 5 6 5 1 1 2 3 8 10 11 13 4 6 5 4 4 4 4 5 5 5 6 6 6 6
5 6 7 7 8 8 10 11 12 9 8 9 9 10 9 7 9 9 11 8 6 6 5 6 7 6 9 8 7 7 7 7 8 9 9 9 9 9 8 9 9 8 7 8 7 8 8 8 7 7 7 8 6 7 7 6 5 5 5 4 5 5 4 3 2 6 4 4 8 12 12 16 17 6 5 7 5 5 4 5 5 5 6 6 6
5 6 7 8 8 8 9 13 10 8 8 9 10 11 9 7 8 9 10 10 7 6 7 7 6 7 8 7 6 6 6 6 6 6 7 6 6 7 7 6 6 6 6 7 7 6 6 6 6 6 7 8 7 7 7 6 5 5 6 5 5 4 3 3 6 6 5 6 8 8 10 12 12 17 5 5 7 7 7 5 5 6 6 6 6
Wind_Direction
223 221 213 201 194 186 174 169 168 165 164 162 158 154 151 146 142 139 135 132 131 132 130 131 134 129 126 126 115 112 105 98 92 86 85 81 77 82 91 90 92 91 90 89 84 83 76 76 70 63 59 58 58 53 50 49 52 56 58 59 58 55 55 53 49 44 41 35 36 35 49 60 62 64 64 64 63 61 57 56 54 57 58 59 55
179 206 205 193 196 190 175 170 168 167 165 165 158 157 153 149 145 141 140 137 136 135 134 135 134 134 133 128 121 117 112 104 99 95 93 86 80 83 99 95 86 86 86 83 80 75 71 71 72 70 66 62 59 59 58 57 57 59 62 62 61 60 58 54 48 45 43 38 36 34 29 43 61 62 64 65 64 60 58 56 51 55 58 60 58
213 173 193 192 195 194 177 172 169 169 170 166 161 159 154 149 144 144 144 142 138 138 137 139 136 134 133 130 127 121 115 108 106 109 102 89 81 85 96 98 93 92 91 87 81 79 78 74 70 66 61 57 54 52 51 51 51 54 62 66 66 62 60 54 48 44 45 46 43 38 36 23 44 63 64 63 64 62 59 59 57 52 56 58 61
172 173 182 184 195 192 178 172 170 169 170 168 162 160 152 146 148 149 148 144 144 141 143 143 139 136 134 131 127 120 117 115 114 114 106 97 90 88 96 99 97 92 91 89 87 83 79 75 69 67 63 58 53 49 47 45 44 43 42 47 53 55 52 49 54 54 48 51 49 31 41 44 33 65 70 70 65 63 59 61 63 60 62 60 56
177 167 179 177 185 186 180 171 173 170 163 170 163 158 158 149 153 151 152 147 148 144 144 148 146 139 139 138 132 129 125 119 120 116 112 106 101 98 102 103 99 97 93 92 90 85 80 75 71 66 64 58 54 50 46 41 39 37 37 33 34 40 39 36 47 66 68 63 53 46 45 46 52 64 77 77 73 70 64 62 60 59 56 58 58
173 167 172 179 182 183 180 174 172 171 163 169 165 164 166 156 153 152 149 150 152 149 152 154 149 143 145 141 136 134 133 132 129 122 112 110 104 104 104 106 102 94 89 84 85 84 76 70 68 68 65 60 56 50 45 40 35 33 32 29 25 26 27 23 39 75 86 83 62 59 65 48 66 69 75 78 79 71 67 61 59 57 53 51 52
172 168 168 174 181 183 182 176 173 173 167 169 167 168 165 158 156 155 155 158 155 156 159 161 154 147 148 149 151 150 142 141 137 130 120 114 106 103 103 106 103 98 95 93 88 80 73 73 77 74 67 62 58 54 47 40 33 32 31 27 24 21 21 26 37 76 85 89 83 76 72 68 70 69 82 77 74 73 66 61 59 57 54 49 45
161 169 170 172 179 180 184 177 177 174 171 166 167 171 163 160 155 160 160 159 158 163 163 168 158 159 157 161 160 158 153 151 143 128 124 115 108 100 99 100 105 101 98 88 78 79 82 82 78 70 64 58 52 47 43 39 33 29 28 25 27 24 26 46 65 72 97 99 97 87 84 81 76 76 81 78 70 64 61 59 58 58 55 54 46
166 172 168 171 182 175 184 182 174 176 176 170 163 172 164 159 158 159 160 163 165 167 174 173 166 163 162 169 165 161 151 135 133 132 126 121 117 110 106 107 106 98 81 72 71 68 76 79 75 68 62 55 49 43 36 30 25 24 23 20 24 30 49 76 70 86 106 108 107 97 93 83 82 82 79 79 74 69 65 61 60 56 57 55 53
157 169 170 169 182 180 181 185 179 180 181 174 169 173 165 163 161 159 171 170 171 173 183 179 172 169 177 182 167 156 143 138 143 138 131 122 117 113 110 101 82 76 80 73 70 61 64 79 67 73 62 60 50 42 35 29 23 15 18 23 22 35 69 90 95 94 108 107 107 105 94 80 92 83 78 78 73 68 64 54 51 50 56 59 57
160 174 177 179 184 179 184 189 182 180 183 176 172 173 173 168 162 165 179 176 175 179 189 185 181 181 187 187 175 151 148 144 142 140 128 117 114 111 101 87 77 71 69 54 48 44 21 94 95 75 72 64 54 43 37 30 25 16 17 22 34 52 84 92 87 89 95 103 110 108 96 30 90 87 80 74 72 70 60 54 44 47 46 47 47
166 167 177 184 181 186 190 193 188 183 184 177 173 177 179 169 166 173 183 175 181 185 191 193 188 193 197 200 171 152 145 146 144 149 132 120 115 108 95 91 83 73 63 57 44 27 9 61 90 81 71 62 53 43 38 30 25 20 15 28 44 67 90 84 86 96 100 65 82 66 89 101 87 91 85 76 72 71 63 55 50 48 48 45 48
169 175 181 174 190 193 194 198 198 189 186 180 181 182 182 174 171 174 185 183 185 189 195 197 196 200 209 209 171 158 152 152 156 150 136 130 130 119 107 100 90 78 60 50 34 23 16 79 81 75 68 57 47 41 33 29 26 22 16 29 54 70 85 103 93 67 70 49 67 55 54 68 15 5 87 73 70 53 54 56 50 42 43 48 46
167 185 188 186 191 198 195 200 201 199 190 189 186 186 184 179 177 180 184 186 187 195 196 201 202 207 219 213 173 163 163 157 158 148 141 132 130 122 112 100 91 80 61 32 26 31 7 89 78 64 60 57 47 37 34 28 24 19 16 31 51 60 57 78 63 73 53 44 55 41 35 13 28 325 75 76 52 55 58 49 46 46 37 32 29
172 184 190 187 194 196 199 200 199 204 194 191 193 190 190 179 179 179 183 184 186 190 192 194 206 212 224 225 182 176 171 159 155 162 149 142 134 128 118 104 86 64 50 43 25 26 61 83 73 66 59 52 50 40 31 31 26 17 13 31 47 50 38 69 55 59 57 38 50 45 41 19 350 242 94 90 76 53 50 50 41 36 25 13 44
187 185 180 177 193 198 196 201 203 202 198 193 194 199 193 183 180 180 181 188 186 189 198 197 199 204 222 217 207 195 182 167 164 166 162 152 146 134 126 114 88 66 57 49 41 39 90 78 75 69 61 51 42 44 33 27 29 19 14 31 44 48 41 32 69 45 43 46 43 40 29 26 9 259 40 76 78 75 53 25 27 34 32 18 16
163 111 189 199 190 200 205 201 202 201 201 196 191 187 191 183 177 181 183 183 188 193 202 202 202 198 204 205 152 184 172 188 169 165 154 143 136 123 120 111 89 70 61 52 51 73 92 84 75 66 59 52 46 37 38 30 27 22 16 31 40 44 38 22 64 47 28 33 31 24 25 39 39 51 43 65 60 37 353 359 10 27 30 21 21
46 167 215 220 221 216 213 209 202 205 206 199 192 189 183 182 180 181 181 181 187 197 203 205 205 192 200 156 151 167 167 174 195 162 137 123 110 109 104 98 85 83 67 59 47 91 92 87 79 69 57 55 50 40 30 34 30 23 24 33 37 36 33 28 40 34 32 26 27 17 30 13 28 40 35 34 36 343 330 356 30 41 25 17 56
19 40 210 160 229 260 226 215 210 206 207 203 202 194 188 181 180 186 181 182 184 191 198 198 204 199 179 147 166 172 163 165 166 166 128 123 114 97 89 78 88 86 79 60 56 96 93 90 80 72 63 59 55 44 29 29 32 26 26 35 34 28 28 24 26 17 16 29 11 11 9 353 354 16 348 327 320 325 3 22 33 35 6 60 59
26 32 1 233 219 218 227 222 215 214 210 202 192 198 196 188 184 199 199 181 184 185 190 190 195 191 176 155 157 172 139 127 142 153 123 115 112 107 101 92 91 107 98 84 80 90 104 91 78 73 69 67 58 49 38 32 29 24 23 26 27 20 27 25 14 14 10 15 3 360 352 346 348 307 308 317 335 15 46 6 353 52 93 93 81
24 11 314 316 224 212 219 224 214 215 216 201 200 196 191 190 196 184 198 216 186 186 188 180 173 155 156 171 152 162 154 151 160 163 136 128 121 115 110 117 117 106 102 101 107 110 110 95 83 77 80 74 68 58 40 36 33 26 23 20 14 27 22 12 10 11 18 356 356 5 346 342 335 312 312 334 351 5 31 26 18 271 5 62 72
331 336 333 307 299 230 214 217 215 210 215 205 198 191 181 192 192 192 186 203 210 201 192 189 173 177 148 143 158 148 154 161 171 170 155 141 132 137 124 88 95 90 109 127 145 118 106 109 93 92 87 83 72 60 46 33 37 33 27 21 23 20 16 10 4 6 5 2 349 348 344 346 330 309 328 346 346 22 332 40 11 295 89 8 47
342 343 329 345 295 272 230 219 215 210 212 208 201 205 180 199 211 186 186 196 201 192 237 234 191 171 170 153 154 149 143 159 166 167 155 153 148 147 134 131 139 157 156 96 83 116 123 127 115 104 92 82 72 67 55 40 41 34 33 28 24 17 5 15 9 11 5 348 339 345 345 345 340 317 317 332 325 339 339 332 348 8 1 22 328
325 321 312 307 303 267 249 228 219 210 212 208 193 196 204 184 197 213 196 181 199 204 194 183 207 163 152 161 160 157 152 147 139 148 135 147 151 158 147 142 111 95 109 104 91 113 109 95 105 102 86 64 77 66 53 46 43 44 39 34 24 11 13 6 5 358 348 353 335 345 348 344 343 333 310 326 333 347 323 304 318 360 5 332 15
317 311 308 321 322 301 260 242 219 207 209 215 197 191 188 187 173 179 210 226 201 199 194 196 193 184 180 167 166 153 139 146 146 135 129 141 137 145 137 120 138 118 104 104 136 102 94 109 80 73 86 91 83 68 55 49 45 40 42 27 16 7 2 7 357 346 353 348 342 346 349 346 340 341 334 310 319 325 307 299 327 353 334 321 289
317 337 336 322 322 313 288 252 227 216 206 207 209 182 170 189 206 225 257 193 153 141 233 225 201 193 188 173 156 149 153 143 189 153 164 173 168 142 115 111 112 141 152 123 70 67 74 93 91 69 93 76 70 81 64 47 44 41 43 38 23 5 358 356 352 343 347 343 342 346 349 346 339 338 338 325 315 313 315 302 299 261 277 331 315
346 341 333 339 334 325 304 272 233 212 208 195 197 186 207 175 189 205 224 222 189 180 148 140 215 224 184 168 156 165 162 166 184 178 165 179 141 134 137 144 148 128 122 128 141 152 138 128 162 161 124 109 90 75 77 67 42 30 32 40 28 9 355 350 345 338 334 333 327 334 343 341 337 334 332 327 313 300 280 290 290 286 291 291 309
335 352 353 346 341 337 322 295 256 208 207 176 197 191 174 193 172 227 192 273 323 246 100 60 185 171 309 181 175 184 178 174 182 183 153 107 144 151 164 147 143 165 164 159 150 111 144 136 116 87 93 79 109 91 92 83 69 42 19 12 0 6 356 343 335 330 325 326 322 332 334 336 333 329 326 319 311 309 314 311 284 287 298 274 227
6 1 346 349 343 339 335 293 270 237 184 181 178 169 153 171 182 232 264 136 185 52 85 94 126 151 136 351 124 170 158 161 162 167 143 178 186 152 142 167 161 149 164 87 79 137 55 40 48 74 125 116 112 106 83 91 83 73 55 15 3 355 350 338 337 327 325 322 322 326 330 334 330 326 318 316 313 308 309 313 306 287 271 281 244
354 347 355 348 347 344 9 22 327 319 153 189 132 126 151 201 129 212 128 88 69 67 71 108 103 117 65 66 35 117 145 146 144 149 155 135 209 110 151 182 170 130 122 105 83 91 115 123 135 134 91 98 110 74 24 22 62 46 40 19 6 341 314 310 311 315 315 312 319 316 328 331 330 326 323 319 313 310 304 307 307 311 300 264 262
346 7 359 348 346 352 18 23 46 320 4 141 132 123 72 122 144 94 51 70 102 108 79 51 87 72 84 102 129 109 104 123 164 149 148 154 141 124 119 86 69 55 52 87 96 102 108 110 94 76 90 88 57 53 4 344 339 13 10 332 353 310 303 293 270 267 280 292 295 303 309 319 323 321 321 318 315 311 311 310 311 308 312 317 285
359 353 347 341 358 13 18 22 23 8 71 40 114 86 87 80 39 21 59 49 35 38 44 42 41 36 45 52 50 58 48 49 61 38 40 18 15 23 25 43 80 87 75 91 97 82 95 90 79 73 75 66 69 56 24 331 327 333 333 326 323 306 312 312 292 285 275 257 252 270 296 306 299 309 311 313 309 310 312 312 312 311 313 312 321
348 343 342 8 13 11 23 26 32 31 30 47 43 48 51 43 54 46 46 50 52 52 46 42 45 44 41 40 45 52 55 59 53 58 63 73 54 51 41 33 29 50 54 55 65 62 74 94 82 82 92 87 36 19 357 319 318 323 330 333 326 315 331 305 293 279 274 272 263 255 266 287 297 299 303 309 310 310 306 309 309 314 310 316 315
342 345 354 18 4 19 28 41 42 46 46 51 54 52 52 47 50 49 49 53 55 61 55 48 51 52 55 51 50 49 53 50 63 61 63 68 63 59 57 42 37 40 43 39 51 21 35 45 42 19 20 9 359 4 345 334 333 326 322 331 312 311 315 298 287 286 283 277 290 287 283 264 270 282 292 293 302 308 311 308 313 310 311 311 311
351 356 7 0 24 36 35 51 51 57 57 56 58 62 56 59 59 57 52 56 54 59 58 50 48 45 52 48 45 49 50 52 65 87 75 76 72 61 50 53 64 70 67 45 50 40 35 41 33 8 3 14 353 353 356 341 329 327 327 321 311 309 290 287 293 284 286 305 300 290 284 283 273 268 271 282 284 293 307 311 311 310 309 306 316
5 355 354 358 22 35 47 63 57 62 63 66 70 70 71 69 65 59 52 47 51 43 54 51 51 51 53 53 40 49 46 46 42 57 66 51 58 55 38 44 51 60 65 60 73 63 59 90 108 118 16 327 326 303 89 320 311 304 307 295 292 297 294 291 290 285 281 288 278 275 271 269 271 274 270 270 279 286 290 305 306 307 308 317 321
2 2 3 4 26 23 29 50 56 64 68 72 70 67 69 68 67 62 62 58 54 48 45 44 44 45 45 54 47 49 44 42 43 46 65 55 58 60 51 50 51 63 65 59 52 37 35 20 44 24 36 302 308 293 292 263 291 280 268 284 278 291 285 286 278 274 273 260 270 265 262 254 257 260 267 272 279 272 275 283 298 304 315 324 319
8 9 8 18 32 29 36 36 33 36 47 58 65 68 69 68 66 65 66 66 59 57 52 49 44 38 41 42 42 47 45 44 44 48 64 58 57 55 45 42 49 59 57 55 56 39 38 20 33 54 22 338 329 331 323 328 323 305 302 293 292 267 265 259 257 271 271 277 263 266 274 282 271 268 276 280 281 289 293 288 302 305 315 317 311
11 11 18 24 37 38 40 38 35 29 42 52 60 66 67 70 69 63 55 55 56 51 44 48 41 41 42 38 40 43 38 39 40 44 55 50 47 44 42 29 32 46 52 44 40 25 30 28 37 15 16 355 330 334 318 310 305 299 297 297 295 279 272 262 263 250 259 275 290 284 284 275 288 280 289 298 303 308 309 317 316 310 301 308 310
15 11 26 32 37 41 45 46 34 26 44 54 59 66 62 53 58 51 46 37 40 43 41 41 39 43 36 41 43 44 42 44 43 42 52 50 51 46 48 35 38 48 49 44 33 27 21 22 22 12 359 3 53 352 324 315 301 296 293 286 263 275 268 277 275 275 311 283 276 278 275 296 294 300 305 301 304 303 310 310 300 296 301 301 301
25 14 31 35 38 39 50 46 31 35 50 54 51 49 59 68 55 54 61 44 44 49 47 37 42 40 39 43 43 44 41 46 42 47 49 57 56 50 46 37 36 46 50 48 36 33 28 27 14 28 11 10 28 5 0 311 319 326 289 276 297 266 271 266 304 335 301 298 278 273 313 307 279 285 296 303 296 308 309 305 297 298 291 292 290
11 17 32 29 40 43 55 51 40 51 51 57 74 67 61 64 85 71 78 58 49 48 49 41 42 44 43 43 43 42 44 43 39 41 44 42 43 42 40 37 34 41 51 46 39 36 29 28 17 30 28 20 22 3 355 339 30 350 327 327 289 280 277 45 16 0 323 277 303 335 320 290 286 310 311 307 300 296 285 277 279 276 272 276 279
16 27 18 36 36 43 43 47 44 51 52 57 66 74 72 69 81 89 80 83 65 69 69 59 50 53 46 42 42 42 44 45 42 45 49 45 48 49 42 40 40 34 42 40 35 34 27 26 23 26 15 32 35 28 17 31 356 330 287 311 343 344 7 33 4 345 320 332 1 298 282 271 313 345 311 294 288 286 273 279 278 272 278 275 277
24 24 21 35 40 43 41 46 46 45 53 51 73 81 85 88 81 86 79 75 84 80 77 60 53 50 45 40 41 39 41 47 41 45 50 49 48 51 49 44 44 38 43 46 38 32 25 23 21 27 17 32 15 18 29 13 24 358 11 348 311 330 327 38 341 316 307 321 318 341 287 326 321 307 297 285 290 288 285 288 281 282 280 278 279
25 24 19 30 43 47 48 52 52 50 46 43 51 81 98 88 90 88 88 92 71 61 59 50 46 51 53 39 35 34 39 43 41 42 46 49 48 48 51 50 50 42 43 47 43 36 30 26 17 25 28 24 29 7 10 7 18 37 24 352 344 337 2 323 329 306 55 339 313 323 340 340 337 335 322 302 300 288 293 286 275 277 275 278 273
33 17 13 36 47 53 55 58 62 56 52 48 49 64 64 81 89 81 69 61 58 42 45 48 44 44 53 51 44 37 38 42 39 38 39 40 45 43 45 48 46 44 44 50 43 36 31 28 18 19 23 13 4 29 15 7 18 46 34 78 157 308 323 324 347 316 316 246 293 13 347 345 336 339 331 318 312 308 294 283 275 275 273 269 266
33 8 31 46 55 60 60 59 61 61 52 53 53 74 79 73 73 77 83 76 87 68 61 49 60 63 63 56 55 47 42 45 41 38 37 38 42 40 41 45 45 43 38 42 40 35 33 31 22 32 28 18 15 36 29 2 350 34 14 26 16 268 267 320 334 320 325 343 149 330 318 316 348 347 319 304 298 298 288 275 279 271 272 264 266
22 31 53 50 56 57 59 61 59 57 50 55 61 50 77 75 83 83 77 80 79 91 75 69 62 61 61 52 51 50 47 45 44 40 37 38 40 43 40 43 47 43 40 43 39 27 28 29 32 33 34 33 27 30 20 20 21 5 356 8 3 355 21 237 221 288 293 306 314 246 179 336 334 296 286 288 286 278 286 287 280 280 268 262 257
25 41 49 54 63 64 67 66 61 55 48 50 62 58 68 74 80 86 85 72 79 80 81 69 68 56 68 54 54 51 51 50 48 44 41 40 39 42 39 42 44 42 43 46 43 39 36 29 23 26 25 26 29 18 28 19 14 14 354 8 356 6 331 325 13 135 309 310 297 316 315 276 247 247 253 253 271 272 268 275 276 276 277 271 261
33 44 55 66 67 74 72 69 61 55 54 58 64 67 66 73 78 77 84 84 81 82 71 68 64 53 64 53 47 47 41 43 42 40 37 34 37 35 38 38 37 36 37 39 39 38 34 35 32 32 28 32 26 26 30 12 14 10 18 353 11 352 359 22 28 348 303 226 285 311 312 321 323 326 333 294 277 269 269 268 274 266 267 268 265
49 61 68 69 76 78 83 75 65 66 57 65 67 68 67 64 79 82 85 90 85 89 83 65 59 53 59 53 50 50 47 47 46 48 47 40 45 46 46 49 51 47 43 38 37 36 31 30 28 34 37 32 23 17 21 20 9 12 12 12 7 8 2 337 327 331 323 307 307 296 306 306 302 308 329 318 304 287 270 268 266 263 264 265 270